Time,TemperatureF,DewpointF,PressureIn,WindDirection,WindDirectionDegrees,WindSpeedMPH,WindSpeedGustMPH,Humidity,HourlyPrecipIn,Conditions,Clouds,dailyrainin,SolarRadiationWatts/m^2,SoftwareType,DateUTC
2013-10-21 00:04:00,48.0,41.0,-100.00,WSW,240,1.0,6.0,78,0.00,,,-99.99,0.000000,,2013-10-21 04:04:00,
2013-10-21 00:44:00,48.0,40.0,-100.00,WSW,246,2.0,8.0,75,0.00,,,0.00,0.000000,,2013-10-21 04:44:00,
2013-10-21 00:53:00,48.0,40.0,-100.00,WSW,246,2.0,8.0,75,0.00,,,0.00,0.000000,,2013-10-21 04:53:00,
2013-10-21 01:04:00,48.0,40.0,-100.00,WSW,246,2.0,8.0,75,0.00,,,0.00,0.000000,,2013-10-21 05:04:00,
2013-10-21 01:43:00,48.0,40.0,-100.00,WSW,247,2.0,9.0,74,0.00,,,0.00,0.000000,,2013-10-21 05:43:00,
2013-10-21 01:52:00,48.0,40.0,-100.00,WSW,247,2.0,9.0,74,0.00,,,0.00,0.000000,,2013-10-21 05:52:00,
2013-10-21 02:02:00,48.0,40.0,-100.00,WSW,247,2.0,9.0,74,0.00,,,0.00,0.000000,,2013-10-21 06:02:00,
2013-10-21 02:42:00,46.0,39.0,-100.00,WSW,239,2.0,8.0,77,0.00,,,0.00,0.000000,,2013-10-21 06:42:00,
2013-10-21 02:52:00,46.0,39.0,-100.00,WSW,239,2.0,8.0,77,0.00,,,0.00,0.000000,,2013-10-21 06:52:00,
2013-10-21 03:02:00,46.0,39.0,-100.00,WSW,239,2.0,8.0,77,0.00,,,0.00,0.000000,,2013-10-21 07:02:00,
2013-10-21 03:43:00,46.0,39.0,-100.00,WSW,250,2.0,9.0,76,0.00,,,0.00,0.000000,,2013-10-21 07:43:00,
2013-10-21 03:52:00,46.0,39.0,-100.00,WSW,250,2.0,9.0,76,0.00,,,0.00,0.000000,,2013-10-21 07:52:00,
2013-10-21 04:03:00,46.0,39.0,-100.00,WSW,250,2.0,9.0,76,0.00,,,0.00,0.000000,,2013-10-21 08:03:00,
2013-10-21 04:42:00,45.0,39.0,-100.00,WSW,247,2.0,8.0,80,0.00,,,0.00,0.000000,,2013-10-21 08:42:00,
2013-10-21 04:52:00,45.0,39.0,-100.00,WSW,247,2.0,8.0,80,0.00,,,0.00,0.000000,,2013-10-21 08:52:00,
2013-10-21 05:02:00,45.0,39.0,-100.00,WSW,247,2.0,8.0,80,0.00,,,0.00,0.000000,,2013-10-21 09:02:00,
2013-10-21 05:43:00,44.0,39.0,-100.00,WSW,242,2.0,7.0,84,0.00,,,0.00,0.000000,,2013-10-21 09:43:00,
2013-10-21 05:54:00,44.0,39.0,-100.00,WSW,242,2.0,7.0,84,0.00,,,0.00,0.000000,,2013-10-21 09:54:00,
2013-10-21 06:03:00,44.0,39.0,-100.00,WSW,242,2.0,7.0,84,0.00,,,0.00,0.000000,,2013-10-21 10:03:00,
2013-10-21 06:43:00,44.0,39.0,-100.00,WSW,247,2.0,8.0,83,0.00,,,0.00,0.000000,,2013-10-21 10:43:00,
2013-10-21 06:52:00,44.0,39.0,-100.00,WSW,247,2.0,8.0,83,0.00,,,0.00,0.000000,,2013-10-21 10:52:00,
2013-10-21 07:02:00,44.0,39.0,-100.00,WSW,247,2.0,8.0,83,0.00,,,0.00,0.000000,,2013-10-21 11:02:00,
2013-10-21 07:42:00,44.0,38.0,-100.00,WSW,256,2.0,8.0,80,0.00,,,0.00,0.000000,,2013-10-21 11:42:00,
2013-10-21 07:52:00,44.0,38.0,-100.00,WSW,256,2.0,8.0,80,0.00,,,0.00,0.000000,,2013-10-21 11:52:00,
2013-10-21 08:01:00,44.0,38.0,-100.00,WSW,256,2.0,8.0,80,0.00,,,0.00,0.000000,,2013-10-21 12:01:00,
2013-10-21 08:42:00,43.0,38.0,-100.00,WSW,256,1.0,8.0,83,0.00,,,0.00,1.000000,,2013-10-21 12:42:00,
2013-10-21 08:52:00,43.0,38.0,-100.00,WSW,256,1.0,8.0,83,0.00,,,0.00,1.000000,,2013-10-21 12:52:00,
2013-10-21 09:02:00,43.0,38.0,-100.00,WSW,256,1.0,8.0,83,0.00,,,0.00,1.000000,,2013-10-21 13:02:00,
2013-10-21 09:52:00,48.0,40.0,-100.00,WSW,240,1.0,8.0,74,0.00,,,0.00,63.000000,,2013-10-21 13:52:00,
2013-10-21 10:02:00,48.0,40.0,-100.00,WSW,240,1.0,8.0,74,0.00,,,0.00,63.000000,,2013-10-21 14:02:00,
2013-10-21 11:54:00,59.0,44.0,-100.00,West,270,3.0,11.0,58,0.00,,,0.00,423.000000,,2013-10-21 15:54:00,
2013-10-21 12:03:00,59.0,44.0,-100.00,West,270,3.0,11.0,58,0.00,,,0.00,423.000000,,2013-10-21 16:03:00,
2013-10-21 12:43:00,63.0,44.0,-100.00,West,263,4.0,13.0,50,0.00,,,0.00,541.000000,,2013-10-21 16:43:00,
2013-10-21 12:54:00,63.0,44.0,-100.00,West,263,4.0,13.0,50,0.00,,,0.00,541.000000,,2013-10-21 16:54:00,
2013-10-21 13:02:00,63.0,44.0,-100.00,West,263,4.0,13.0,50,0.00,,,0.00,541.000000,,2013-10-21 17:02:00,
2013-10-21 13:53:00,67.0,45.0,-100.00,WSW,251,4.0,15.0,45,0.00,,,0.00,629.000000,,2013-10-21 17:53:00,
2013-10-21 14:02:00,67.0,45.0,-100.00,WSW,251,4.0,15.0,45,0.00,,,0.00,629.000000,,2013-10-21 18:02:00,
2013-10-21 14:42:00,67.0,45.0,-100.00,WSW,249,4.0,14.0,45,0.00,,,0.00,512.000000,,2013-10-21 18:42:00,
2013-10-21 14:52:00,67.0,45.0,-100.00,WSW,249,4.0,14.0,45,0.00,,,0.00,512.000000,,2013-10-21 18:52:00,
2013-10-21 15:02:00,67.0,45.0,-100.00,WSW,249,4.0,14.0,45,0.00,,,0.00,512.000000,,2013-10-21 19:02:00,
2013-10-21 15:42:00,64.0,45.0,-100.00,WSW,254,4.0,13.0,50,0.00,,,0.00,376.000000,,2013-10-21 19:42:00,
2013-10-21 15:52:00,64.0,45.0,-100.00,WSW,254,4.0,13.0,50,0.00,,,0.00,376.000000,,2013-10-21 19:52:00,
2013-10-21 16:02:00,64.0,45.0,-100.00,WSW,254,4.0,13.0,50,0.00,,,0.00,376.000000,,2013-10-21 20:02:00,
2013-10-21 16:43:00,64.0,46.0,-100.00,WNW,286,3.0,11.0,52,0.00,,,0.00,291.000000,,2013-10-21 20:43:00,
2013-10-21 16:53:00,64.0,46.0,-100.00,WNW,286,3.0,11.0,52,0.00,,,0.00,291.000000,,2013-10-21 20:53:00,
2013-10-21 17:03:00,64.0,46.0,-100.00,WNW,286,3.0,11.0,52,0.00,,,0.00,291.000000,,2013-10-21 21:03:00,
2013-10-21 17:44:00,62.0,46.0,-100.00,West,276,3.0,10.0,56,0.00,,,0.00,178.000000,,2013-10-21 21:44:00,
2013-10-21 17:54:00,62.0,46.0,-100.00,West,276,3.0,10.0,56,0.00,,,0.00,178.000000,,2013-10-21 21:54:00,
2013-10-21 18:04:00,62.0,46.0,-100.00,West,276,3.0,10.0,56,0.00,,,0.00,178.000000,,2013-10-21 22:04:00,
2013-10-21 18:44:00,60.0,47.0,-100.00,West,281,3.0,8.0,61,0.00,,,0.00,98.000000,,2013-10-21 22:44:00,
2013-10-21 18:53:00,60.0,47.0,-100.00,West,281,3.0,8.0,61,0.00,,,0.00,98.000000,,2013-10-21 22:53:00,
2013-10-21 19:03:00,60.0,47.0,-100.00,West,281,3.0,8.0,61,0.00,,,0.00,98.000000,,2013-10-21 23:03:00,
2013-10-21 19:42:00,58.0,47.0,-100.00,WNW,294,2.0,9.0,66,0.00,,,0.00,17.000000,,2013-10-21 23:42:00,
2013-10-21 19:53:00,58.0,47.0,-100.00,WNW,294,2.0,9.0,66,0.00,,,0.00,17.000000,,2013-10-21 23:53:00,
2013-10-21 20:02:00,58.0,47.0,-100.00,WNW,294,2.0,9.0,66,0.00,,,0.00,17.000000,,2013-10-22 00:02:00,
2013-10-21 20:42:00,56.0,47.0,-100.00,NNW,336,2.0,9.0,72,0.00,,,0.00,0.000000,,2013-10-22 00:42:00,
2013-10-21 20:53:00,56.0,47.0,-100.00,NNW,336,2.0,9.0,72,0.00,,,0.00,0.000000,,2013-10-22 00:53:00,
2013-10-21 21:03:00,56.0,47.0,-100.00,NNW,336,2.0,9.0,72,0.00,,,0.00,0.000000,,2013-10-22 01:03:00,
2013-10-21 21:42:00,54.0,47.0,-100.00,NNW,335,3.0,8.0,76,0.00,,,0.00,0.000000,,2013-10-22 01:42:00,
2013-10-21 21:53:00,54.0,47.0,-100.00,NNW,335,3.0,8.0,76,0.00,,,0.00,0.000000,,2013-10-22 01:53:00,
2013-10-21 22:02:00,54.0,47.0,-100.00,NNW,335,3.0,8.0,76,0.00,,,0.00,0.000000,,2013-10-22 02:02:00,
2013-10-21 22:43:00,52.0,48.0,-100.00,NNW,339,3.0,10.0,86,0.00,,,0.00,0.000000,,2013-10-22 02:43:00,
2013-10-21 22:52:00,52.0,48.0,-100.00,NNW,339,3.0,10.0,86,0.00,,,0.00,0.000000,,2013-10-22 02:52:00,
2013-10-21 23:03:00,52.0,48.0,-100.00,NNW,339,3.0,10.0,86,0.00,,,0.00,0.000000,,2013-10-22 03:03:00,
2013-10-21 23:45:00,48.0,45.0,-100.00,NNW,333,2.0,12.0,90,0.01,,,0.01,0.000000,,2013-10-22 03:45:00,
2013-10-21 23:55:00,48.0,45.0,-100.00,NNW,333,2.0,12.0,90,0.01,,,0.01,0.000000,,2013-10-22 03:55:00,